HULIANWANG DIGUI-82

Satellite information

Favourite Embed

Satellite Type and Status

PAYLOADIN ORBIT

Key statistics

Satellite HULIANWANG DIGUI-82 at a glance.

Uptime

23

Days in orbit

Revolutions

≈ 13.6

Per day

Orbit

LEO

Low Earth Orbit

Inclination

86.5

Latest

Satellite identification and parameters

Extended collection of information and parameters for HULIANWANG DIGUI-82.

Object identification

Identified? True

Debris? False

Object name: HULIANWANG DIGUI-82

International designator: 2025-220A

Object number (NORAD): 65817

Object ID (CCSDS): 65817

Country: PEOPLES REPUBLIC OF CHINA (PRC)

Current information (Y/N): Y

Orbital parameters

Period: 105.807 minutes

Inclination: 86.495 deg

SMA: 7410.317 km

Apoapsis: 1033.248 km

Periapsis: 1031.117 km

RAAN: 126.0524 deg

Eccentricy: 0.00014374

Argument of periapsis: 88.5423 deg

Mean anomaly: 271.5896 deg

Mean motion: 13.60966844 rev/day

Mean motion (dot): 0.00000044 rev/day2

B* drag term: 0.000036337753 1/REarth

Two-line elements (TLE)

Creation date: Oct. 18, 2025, 2:17 a.m.

Reference frame: TEME

Reference center: EARTH

Epoch: Oct. 17, 2025, 8:33 p.m. UTC

TLE line 0: 0 HULIANWANG DIGUI-82

TLE line 1: 1 65817U 25220A 25290.85639244 .00000044 00000-0 36338-4 0 9992

TLE line 2: 2 65817 86.4950 126.0524 0001437 88.5423 271.5896 13.60966844 2788

Live tracking on map

Real-time ground track for satellite HULIANWANG DIGUI-82.

In-orbit conjunctions

There are no conjunctions computed for HULIANWANG DIGUI-82, at the moment. Check back to stay up to date, as we update our databases every day.

Go to all conjunctions

Associated space launch

A batch of 5 Low Earth Orbit communication satellites for the Chinese state owned SatNet constellation operated by the China Satellite Network Group. The constellation will eventually consists of 13000 satellites.

HULIANWANG DIGUI-82 was lifted into orbit during the mission ‘Long March 6A | SatNet LEO Group 11’, on board a Long March 6A space rocket.

The launch took place on Sept. 27, 2025, 12:40 p.m. from Launch Complex 9A.

For more information about the launch, click the button.

Launch to space Long March 6A | SatNet LEO Group 11
Long March 6A | SatNet LEO Group 11

Agency: N/A

Status: Launch Successful

Launch date: Sept. 27, 2025, 12:40 p.m. UTC

Rocket: Long March 6A

Launch pad: Launch Complex 9A

Location: Taiyuan Satellite Launch Center, People's Republic of China

...

Latest news about this satellite

News about space launch
China boosts broadband, IoT and weather satellite fleets with flurry of launches

A flurry of launch activity has seen China add to an Internet of Things constellation, loft new broadband satellites and boost its weather satellite fleet. The post China boosts broadband, IoT and weather satellite fleets with flurry of launches appeared...

News about space launch
Launch Roundup: Kuiper, Starlink, IMAP headline launch manifest

A busy slate of launches is planned for the last full week of September, including… The post Launch Roundup: Kuiper, Starlink, IMAP headline launch manifest appeared first on NASASpaceFlight.com.


Newsletter sign-up

Weekly statistics, charts and insights to help you stay on top of the space industry.